Flag for Canada Weather past 2 weeks in Surrey, British Columbia, Canada

Now
54 °F

Cool.


Feels Like: 54 °F
Forecast: 51 / 55 °F
Wind: 5 mph from Southeast

Location: P. Meadows Coastal Station

Current Time: Oct 22, 2014 at 6:51:51 AM

Latest Report: Oct 22, 2014 at 6:00 AM


Visibility: N/A

Pressure: 29.62 "Hg

Humidity: 88%

Dew point: 51 °F

Location of SurreyLocation

Historic Weather in Surrey — Graph

°F

Surrey temperature yesterday

Maximum temperature yesterday: 60 °F (at 3:00 PM)
Minimum temperature yesterday: 54 °F (at 1:00 AM)
Average temperature yesterday: 57 °F

Past Weeks' High & Low Weather Summary

 TemperatureHumidityPressure
High72 °F (Oct 9, 4:00 PM)100% (Oct 8, 3:00 AM)30.24 "Hg (Oct 8, 3:00 AM)
Low47 °F (Oct 17, 12:00 AM)54% (Oct 19, 1:00 PM)29.52 "Hg (Oct 15, 2:00 AM)
Average57 °F89%29.87 "Hg
* Reported Oct 7 6:00 AM — Oct 22 5:00 AM, Surrey, Weather by CustomWeather, © 2014

Note: Actual official high and low records may vary slightly from our data, if they occured in-between our weather recording intervals... More about our weather records

Advertising

Surrey weather history for previous 24 hours

 ConditionsComfort  
Time TempWeatherWind HumidityBarometerVisibility
5:00 AM
Oct 22
55 °FCool.6 mph88%29.61 "HgN/A
4:00 AM56 °FCool.7 mph79%29.60 "HgN/A
3:00 AM58 °FCool.7 mph73%29.59 "HgN/A
2:00 AM62 °FRefreshingly cool.20 mph54%29.58 "HgN/A
1:00 AM61 °FRefreshingly cool.16 mph60%29.60 "HgN/A
12:00 AM60 °FCool.20 mph65%29.64 "HgN/A
11:00 PM
Oct 21
57 °FCool.7 mph78%29.68 "HgN/A
10:00 PM56 °FCool.5 mph86%29.70 "HgN/A
9:00 PM55 °FCool.5 mph88%29.72 "HgN/A
8:00 PM56 °FCool.5 mph88%29.76 "HgN/A
7:00 PM58 °FCool.3 mph77%29.80 "HgN/A
6:00 PM59 °FCool.7 mph71%29.80 "HgN/A
5:00 PM60 °FCool.7 mph69%29.81 "HgN/A
4:00 PM60 °FCool.8 mph68%29.82 "HgN/A
3:00 PM60 °FCool.9 mph67%29.83 "HgN/A
2:00 PM60 °FCool.6 mph71%29.84 "HgN/A
1:00 PM59 °FCool.6 mph75%29.86 "HgN/A
12:00 PM60 °FCool.5 mph76%29.87 "HgN/A
11:00 AM58 °FCool.2 mph83%29.86 "HgN/A
10:00 AM56 °FCool.3 mph86%29.85 "HgN/A
9:00 AM55 °FCool.5 mph90%29.83 "HgN/A
8:00 AM55 °FCool.5 mph91%29.81 "HgN/A
7:00 AM55 °FCool.3 mph90%29.80 "HgN/A
6:00 AM55 °FCool.3 mph91%29.79 "HgN/A
Weather by CustomWeather, © 2014

See weather overviewHow to use our weather pages